User: anonymous   Login
Location: Bijele Vode
(45.2833°N, 16.2000°E)
Time: 00:37:31
(UTC+00:00)
Language:

Lacrosse 5 rocket - Orbit

View from above orbital plane
View from above orbital plane
View from above satellite
View from above satellite

Ground track
Ground track

The orbit data is extracted from the following two-line orbital elements,

1 28647U 05016B   21136.07450934  .00000253  00000-0  32580-4 0  9996
2 28647  56.9971 327.4417 0126139  25.8476 334.8791 15.06395361110071
Epoch (UTC): 16 May 2021 01:47:17
Eccentricity: 0.0126139
inclination: 56.9971°
perigee height: 460 km
apogee height: 634 km
right ascension of ascending node: 327.4417°
argument of perigee: 25.8476°
revolutions per day: 15.06395361
mean anomaly at epoch: 334.8791°
orbit number at epoch: 11007

The dashed part of the orbit path shows where the satellite is in the earth's shadow,  

DLR